Fallon NAS, NV

9:26 PM PDT on May 25, 2017 (GMT -0700)
Fallon Naval Air Station

Weather History for KNFL - December, 2013

Change the Weather History Date:

Tuesday, December 3, 2013

  Actual Average Record
Temperature  
Mean Temperature 35 °F -  
Max Temperature 51 °F 52 °F 66 °F (1940)
Min Temperature 19 °F 22 °F 8 °F (1934)
Degree Days  
Heating Degree Days 30    
Moisture  
Dew Point 24 °F    
Average Humidity 77    
Maximum Humidity 88    
Minimum Humidity 50    
Precipitation  
Precipitation 0.00 in - - ()
Sea Level Pressure  
Sea Level Pressure 29.76 in    
Wind  
Wind Speed 14 mph (NNW)    
Max Wind Speed 25 mph    
Max Gust Speed 34 mph    
Visibility 6 miles    
Events Snow    
Averages and records for this station are not official NWS values.
T = Trace of Precipitation, MM = Missing Value Source: NWS Daily Summary

Daily Weather History Graph

Daily Weather History Graph

Search for Another Location

Airport or City:

Trip Planner

Search our weather history database for the weather conditions in past years. The results will help you decide how hot, cold, wet, or windy it might be!

Date:

Astronomy

Dec. 03, 2013 Rise Set
Actual Time 6:58 AM PST 4:31 PM PST
Civil Twilight 6:28 AM PST 5:01 PM PST
Nautical Twilight 5:54 AM PST 5:34 PM PST
Astronomical Twilight 5:22 AM PST 6:06 PM PST
Moon 7:32 AM PST (12/3) 5:40 PM PST (12/3)
Length of Visible Light 10h 32m
Length of Day
9h 33m
New Moon, 1% of the Moon is Illuminated
Dec 3
New Moon
Dec 9
First Quarter
Dec 17
Full
Dec 25
Last Quarter
Jan 1
New

Hourly Weather History & Observations

Time (PST) Temp. Windchill Dew Point Humidity Pressure Visibility Wind Dir Wind Speed Gust Speed Precip Events Conditions
12:56 AM 51.1 °F - 33.1 °F 50% 29.69 in 10.0 mi WNW 9.2 mph - N/A   Overcast
1:56 AM 51.1 °F - 34.0 °F 52% 29.67 in 10.0 mi West 10.4 mph - N/A   Overcast
2:56 AM 48.0 °F - 35.1 °F 61% 29.64 in 10.0 mi WSW 4.6 mph - N/A   Overcast
3:56 AM 51.1 °F - 33.1 °F 50% 29.62 in 10.0 mi West 15.0 mph - N/A   Clear
4:56 AM 43.0 °F 35.1 °F 32.0 °F 65% 29.63 in 10.0 mi NNE 17.3 mph 23.0 mph N/A   Overcast
5:56 AM 36.0 °F 25.6 °F 28.9 °F 76% 29.65 in 10.0 mi North 18.4 mph 27.6 mph N/A   Overcast
6:10 AM 35.1 °F 23.3 °F 28.9 °F 78% 29.72 in 10.0 mi NNE 23.0 mph 29.9 mph 0.00 in Snow Light Snow
6:43 AM 33.1 °F 21.2 °F 28.9 °F 85% 29.74 in 3.0 mi NNE 20.7 mph 29.9 mph 0.00 in Snow Light Snow
6:56 AM 32.0 °F 20.1 °F 28.0 °F 85% 29.69 in 1.0 mi NNE 19.6 mph - 0.00 in Snow Light Snow
7:12 AM 30.9 °F 18.1 °F 27.0 °F 85% 29.75 in 1.5 mi North 21.9 mph 29.9 mph 0.00 in Snow Light Snow
7:56 AM 30.0 °F 17.9 °F 26.1 °F 85% 29.72 in 1.0 mi NNE 18.4 mph 25.3 mph 0.00 in Snow Light Snow
8:21 AM 30.0 °F 16.9 °F 24.1 °F 79% 29.79 in 2.5 mi North 21.9 mph 31.1 mph 0.00 in Snow Light Snow
8:38 AM 28.9 °F 14.5 °F 23.0 °F 78% 29.80 in 1.0 mi North 25.3 mph 34.5 mph 0.00 in Snow Light Snow
8:46 AM 28.0 °F 13.6 °F 23.0 °F 81% 29.82 in 0.5 mi NNE 24.2 mph 32.2 mph 0.00 in Snow Light Snow
8:56 AM 28.0 °F 13.6 °F 23.0 °F 81% 29.76 in 0.2 mi North 24.2 mph 33.4 mph 0.00 in Snow Snow
9:31 AM 28.0 °F 14.9 °F 24.1 °F 85% 29.84 in 0.2 mi North 19.6 mph 26.5 mph 0.00 in Snow Light Snow
9:56 AM 28.0 °F 16.1 °F 24.1 °F 85% 29.77 in 2.0 mi North 16.1 mph - 0.00 in Snow Light Snow
10:03 AM 28.9 °F 18.6 °F 25.0 °F 85% 29.84 in 2.5 mi North 12.7 mph - 0.00 in Snow Light Snow
10:21 AM 28.9 °F 17.7 °F 25.0 °F 85% 29.84 in 3.0 mi North 15.0 mph - 0.00 in   Overcast
10:31 AM 28.9 °F 19.2 °F 25.0 °F 85% 29.84 in 2.0 mi North 11.5 mph - 0.00 in Snow Light Snow
10:44 AM 28.0 °F 17.0 °F 24.1 °F 85% 29.84 in 2.0 mi North 13.8 mph - 0.00 in Snow Light Snow
10:56 AM 28.0 °F 17.0 °F 25.0 °F 88% 29.76 in 3.0 mi North 13.8 mph 19.6 mph 0.00 in Snow Light Snow
11:20 AM 28.0 °F 16.5 °F 24.1 °F 85% 29.82 in 2.0 mi North 15.0 mph - 0.00 in Snow Light Snow
11:43 AM 28.0 °F 17.5 °F 24.1 °F 85% 29.82 in 2.0 mi North 12.7 mph - 0.00 in Snow Light Snow
11:56 AM 28.9 °F 18.6 °F 24.1 °F 82% 29.75 in 5.0 mi North 12.7 mph - 0.00 in Snow Light Snow
12:56 PM 28.9 °F 19.8 °F 21.9 °F 75% 29.75 in 9.0 mi North 10.4 mph - 0.00 in   Overcast
1:44 PM 28.9 °F 19.2 °F 21.9 °F 75% 29.81 in 7.0 mi North 11.5 mph - 0.00 in Snow Light Snow
1:56 PM 28.9 °F 19.8 °F 21.9 °F 75% 29.75 in 8.0 mi North 10.4 mph - 0.00 in Snow Light Snow
2:06 PM 30.0 °F 21.1 °F 21.9 °F 72% 29.81 in 9.0 mi North 10.4 mph - 0.00 in   Overcast
2:56 PM 28.9 °F 19.2 °F 21.9 °F 75% 29.75 in 10.0 mi NNW 11.5 mph - 0.00 in   Overcast
3:56 PM 28.9 °F 21.1 °F 19.9 °F 69% 29.75 in 10.0 mi NNW 8.1 mph - N/A   Mostly Cloudy
4:56 PM 27.0 °F 21.6 °F 19.9 °F 75% 29.76 in 10.0 mi NW 4.6 mph - N/A   Mostly Cloudy
5:56 PM 26.1 °F 16.8 °F 19.0 °F 75% 29.77 in 10.0 mi WNW 9.2 mph - N/A   Mostly Cloudy
6:56 PM 25.0 °F 16.3 °F 17.1 °F 72% 29.78 in 10.0 mi NNW 8.1 mph - N/A   Mostly Cloudy
7:56 PM 21.0 °F 13.4 °F 15.1 °F 78% 29.78 in 10.0 mi WSW 5.8 mph - N/A   Scattered Clouds
8:56 PM 19.0 °F 11.1 °F 14.0 °F 81% 29.78 in 10.0 mi WSW 5.8 mph - N/A   Partly Cloudy
9:56 PM 21.9 °F 13.4 °F 16.0 °F 78% 29.78 in 10.0 mi WSW 6.9 mph - N/A   Mostly Cloudy
10:56 PM 23.0 °F - 17.1 °F 78% 29.78 in 10.0 mi Calm Calm - N/A   Overcast
11:56 PM 25.0 °F 18.1 °F 17.1 °F 72% 29.79 in 10.0 mi NW 5.8 mph - N/A   Overcast